{"data":{"norad_id":67374,"intl_designator":"2026-004M","name":"AETHER-3","alt_names":[],"object_type":"PAYLOAD","status":"ACTIVE","operator":null,"country":"CA","launch_date":"2026-01-11","launch_site_code":"AFWTR","launch_vehicle":null,"mission":null,"orbit_class":"UNKNOWN","rcs_meters":null,"size_class":null,"mass_kg":null,"dimensions":null,"purposes":[],"wikipedia_slug":null,"has_3d_model":false,"image_url":null,"decayed_at":null,"tle_current":{"epoch":"2026-09-19T17:21:31.157856Z","epoch_age_seconds":167275,"freshness":"FRESH","line1":"1 67374U 26004M   26262.72327729  .00000425  00000+0  53429-4 0  9993","line2":"2 67374  97.8149 259.8033 0003658 151.7714 208.3701 14.87026035 37350","mean_motion":14.87026035,"eccentricity":0.0003658,"inclination_deg":97.8149,"raan_deg":259.8033,"arg_perigee_deg":151.7714,"mean_anomaly_deg":208.3701,"bstar":5.3429e-5,"rev_number":3735,"period_min":96.837578233793,"perigee_km":604.67847702068,"apogee_km":609.78897424355,"semimajor_km":6985.3707256321,"source":"CELESTRAK","updated_at":"2026-09-21T09:00:16.593831Z"}}}